Lapse_Rate
1.7 3.1 3.6 4.1 5.9 6.6 5.7 6.2 6.5 5.6 6.5 6.8 6.9 6.5 6.5 6.6 6.6 7.1 6.5 6.5 6.5 6.5 6.5 6.5 6.5 6.5 6.5 7.0 6.8 6.5 6.5 6.5 6.5 6.5 6.5 6.5 6.5 6.5 6.5 6.5 6.5 6.5 6.5 6.5
5.3 5.6 5.5 5.7 5.8 5.8 4.2 6.4 6.6 6.3 6.2 6.5 6.5 6.6 6.5 6.7 6.5 6.5 6.5 6.5 6.5 6.5 6.5 6.5 6.5 6.5 6.8 7.1 6.5 6.5 6.5 6.5 6.5 6.5 6.5 6.5 6.5 6.5 6.5 6.5 6.5 6.5 6.5 6.5
5.8 5.7 5.3 5.8 6.3 5.4 4.9 7.5 6.5 6.7 6.9 7.0 6.6 6.5 6.5 6.5 7.0 6.6 6.8 6.5 6.6 6.5 6.5 6.5 6.5 6.5 6.5 7.0 6.8 7.0 6.8 6.5 6.5 6.5 6.5 6.5 6.5 6.5 6.5 6.5 6.5 6.5 6.5 6.5
6.1 5.3 5.7 5.8 5.3 4.7 5.3 6.6 6.7 6.7 6.5 6.6 6.5 6.5 6.5 6.5 6.5 6.8 7.0 6.5 6.5 6.5 6.5 6.5 6.5 6.5 6.5 6.7 6.9 6.8 6.5 6.5 6.5 6.5 6.5 6.5 6.5 6.5 6.5 6.5 6.5 6.5 6.5 6.5
6.1 5.9 5.6 5.4 5.0 3.7 3.4 6.9 7.0 6.8 7.0 7.0 6.6 6.5 6.5 6.5 6.5 6.5 6.5 6.5 6.5 6.5 6.5 6.5 6.5 6.5 6.5 6.5 6.5 6.5 6.5 6.5 6.5 6.5 6.5 6.5 6.5 6.5 6.5 6.5 6.5 6.5 6.5 6.5
5.6 5.9 5.5 5.1 5.0 4.0 4.8 3.4 4.7 7.5 6.9 6.6 6.5 6.5 6.5 6.5 6.6 6.8 7.0 6.6 6.5 6.5 6.5 7.0 7.2 7.3 7.1 6.7 6.5 6.5 6.5 6.5 6.5 6.5 6.5 6.5 6.5 6.5 6.5 6.5 6.5 6.5 6.5 6.5
5.0 5.4 6.1 5.9 5.1 3.7 3.9 2.9 4.9 7.1 6.5 6.5 6.5 6.5 6.7 6.5 6.6 6.5 6.9 7.1 6.6 6.9 6.6 7.1 7.5 7.2 7.0 6.8 6.7 6.9 6.5 6.5 6.5 6.5 6.5 6.5 6.5 6.5 6.5 6.5 6.5 6.5 6.5 6.5
5.6 5.3 5.8 6.4 5.8 4.9 3.6 1.8 4.4 6.3 6.5 6.8 6.6 6.7 6.6 7.0 7.1 6.7 6.8 7.1 6.3 5.9 6.6 6.5 6.5 6.5 6.5 6.5 6.5 6.5 6.5 6.5 6.5 6.5 6.5 6.5 6.5 6.5 6.5 6.5 6.5 6.5 6.5 6.5
5.1 5.7 6.6 6.6 6.1 4.9 4.1 2.0 1.3 5.0 6.9 6.6 7.1 6.8 7.0 6.5 6.5 6.5 6.9 6.9 6.2 6.9 6.6 6.5 6.5 6.5 6.5 6.5 6.5 6.5 6.5 6.5 6.5 6.5 6.5 6.5 6.5 6.5 7.0 6.6 6.5 6.7 6.8 6.7
5.9 5.6 5.8 6.0 6.6 6.4 5.4 2.9 1.2 4.6 6.9 6.2 6.0 6.7 6.7 7.1 6.9 6.5 6.9 7.1 7.1 6.6 6.5 6.5 6.5 6.5 6.5 6.5 6.5 6.5 6.5 6.5 6.5 6.5 6.5 6.5 6.5 6.7 7.1 6.5 6.5 6.9 7.1 7.2
6.1 5.4 5.9 5.4 6.4 6.4 5.6 3.5 1.5 4.3 5.1 5.5 4.5 4.7 6.1 6.5 7.1 6.5 7.0 6.8 6.8 6.6 6.5 6.5 6.5 6.5 6.5 6.5 6.5 6.5 6.5 6.5 6.5 6.5 6.5 6.5 6.9 6.7 6.5 6.7 7.2 7.2 6.8 7.4
5.6 6.1 5.7 5.5 5.7 6.4 5.3 6.0 2.5 2.5 4.2 5.6 4.2 3.8 3.7 4.0 4.7 6.2 5.7 7.0 6.9 7.0 6.5 6.5 6.5 6.5 6.5 6.5 6.5 6.5 6.5 6.5 6.5 6.5 6.5 6.8 7.3 7.0 7.4 7.6 7.3 7.3 7.3 7.4
6.7 6.4 6.0 5.5 5.4 6.2 6.0 4.8 3.4 3.9 4.8 6.6 6.2 6.1 4.7 3.9 3.9 3.5 7.1 6.1 5.9 6.3 5.4 6.9 6.5 6.5 6.5 6.5 6.5 6.5 6.5 6.9 6.5 6.5 6.5 6.7 7.2 7.6 7.8 7.3 7.6 7.7 7.3 7.5
6.1 6.3 6.1 6.0 5.7 6.0 6.4 5.8 4.3 4.5 5.2 6.8 6.8 5.6 5.5 4.5 4.0 3.9 4.4 5.2 4.4 5.1 5.9 7.0 6.5 6.5 7.0 6.5 6.5 6.5 6.7 6.7 6.5 6.5 6.6 7.0 7.4 7.6 7.6 7.4 6.8 7.1 7.1 7.0
6.3 5.8 5.5 5.7 6.1 6.0 5.2 4.2 4.3 4.0 5.5 6.8 7.1 5.9 5.7 4.5 4.6 4.5 4.3 5.0 5.6 6.6 6.9 6.6 6.5 6.9 6.7 6.7 6.6 6.5 7.0 6.5 6.5 6.5 6.9 6.9 7.1 7.6 6.5 7.4 7.0 6.8 6.7 6.6
6.0 6.1 5.6 5.6 5.5 5.1 4.8 5.6 4.2 3.8 4.9 4.9 6.5 6.5 6.6 5.9 5.3 5.3 5.1 5.2 5.3 5.8 7.2 6.9 7.2 6.5 7.0 6.5 6.5 6.7 7.3 6.8 7.3 6.9 7.5 6.9 7.2 6.7 6.6 7.5 7.1 6.9 6.8 6.1
6.8 6.2 5.9 5.9 4.7 4.6 4.7 6.0 4.8 4.3 4.6 5.2 6.7 6.7 7.5 7.2 6.7 6.0 5.9 4.9 5.3 6.2 7.0 7.0 7.0 7.1 7.2 6.5 6.5 6.8 7.2 7.1 5.6 5.6 6.1 6.7 6.5 7.3 6.1 6.0 6.1 6.1 6.3 6.2
7.5 6.9 5.8 5.6 5.4 5.8 5.9 4.1 4.1 3.9 5.7 5.0 6.5 6.5 7.1 7.5 7.2 7.1 5.5 6.4 5.8 6.3 7.2 6.9 6.9 7.2 7.1 6.5 6.7 6.8 7.0 6.4 5.8 5.7 5.2 6.0 5.6 5.6 5.5 5.6 5.8 6.3 6.1 5.7
7.3 7.3 5.6 4.8 4.8 5.1 5.9 4.0 3.9 3.2 5.6 6.6 6.8 6.5 6.5 7.2 7.1 7.0 6.4 6.4 6.5 6.7 6.6 6.8 7.0 6.5 6.5 6.5 6.8 7.0 6.3 6.1 6.1 5.2 5.2 5.1 5.8 5.4 5.1 5.3 5.2 5.7 6.1 5.9
7.2 6.2 5.0 4.5 4.7 5.3 5.8 6.0 5.4 5.8 5.3 5.2 6.6 7.1 6.5 7.2 7.2 6.9 6.9 7.1 6.5 6.5 6.6 7.3 6.5 6.5 7.0 6.1 5.2 5.4 5.1 5.8 5.2 5.6 6.2 5.7 5.5 5.4 5.3 5.6 5.6 5.6 5.6 5.2
5.0 4.6 4.9 4.9 6.3 5.6 5.7 6.5 6.7 6.4 6.6 6.7 7.0 6.8 6.6 6.9 6.5 6.5 7.1 6.5 6.5 6.5 6.5 6.5 6.5 6.5 6.6 5.2 4.5 4.4 5.1 5.1 5.5 5.2 5.3 5.5 5.8 5.4 5.3 5.0 4.8 4.8 4.9 5.1
5.2 4.9 5.0 5.4 5.2 6.0 6.5 6.5 6.6 6.5 6.5 6.8 6.7 6.9 6.7 6.1 5.9 6.8 6.8 6.5 6.5 6.5 6.9 6.5 6.5 6.5 6.1 5.4 4.6 4.0 5.3 5.1 4.7 4.8 4.1 4.2 4.5 4.4 4.3 4.3 4.3 4.4 4.3 4.7
4.5 4.3 4.7 5.8 6.4 6.5 6.5 6.5 6.5 6.5 6.8 6.5 6.8 6.4 5.8 5.8 6.3 6.8 6.5 6.5 6.5 6.9 6.5 6.5 6.5 6.8 5.4 5.0 4.0 3.9 4.8 4.7 4.1 3.9 4.1 3.7 3.5 3.0 3.2 3.7 3.5 3.5 4.2 5.1
5.3 6.2 6.5 6.5 6.5 6.5 6.5 6.5 6.5 5.7 5.1 6.0 6.6 6.6 6.7 7.1 6.6 6.5 6.5 6.5 6.5 6.5 6.5 6.5 6.5 6.6 5.2 4.6 4.5 3.9 4.2 4.1 3.8 3.8 3.5 3.4 3.1 2.8 2.3 2.7 2.8 3.2 4.3 5.0
5.9 6.1 6.5 6.5 6.5 5.8 5.2 4.0 5.0 4.7 5.6 6.5 5.6 6.5 6.8 6.5 6.5 6.5 6.5 6.5 6.5 6.5 6.5 6.5 6.3 4.8 4.3 4.1 3.9 3.7 3.2 2.0 0.9 0.3 0.4 0.6 0.6 1.3 1.6 2.1 2.5 3.0 3.6 4.2
5.6 6.4 6.5 6.8 6.6 6.6 6.8 5.2 5.8 6.2 7.1 4.2 4.6 6.5 6.5 6.5 6.5 6.5 6.5 6.5 6.5 6.5 6.5 5.1 3.3 3.8 3.9 3.8 3.5 3.2 2.5 1.9 1.4 1.3 1.1 1.3 1.3 1.4 1.6 1.5 2.0 2.7 3.0 3.3
6.2 6.6 5.2 6.3 6.0 6.6 6.4 5.9 6.5 6.9 6.5 6.5 6.5 6.5 6.5 6.5 6.5 6.5 6.5 6.5 6.5 6.1 3.9 2.4 3.5 3.2 3.1 2.4 1.7 1.3 1.0 1.1 1.5 1.4 1.8 2.1 2.0 1.5 2.1 2.9 3.5 4.1 4.2 2.9
Wind_Speed
44 44 41 45 40 27 6 3 3 3 4 2 2 1 1 4 3 2 2 2 2 1 3 2 1 1 4 2 5 5 3 3 5 2 2 3 3 10 6 4 5 4 2 5
31 36 39 30 18 10 4 3 3 1 2 2 0 1 1 1 3 1 2 2 1 2 3 1 1 3 2 5 5 6 7 3 6 1 3 6 6 15 4 3 3 15 4 4
26 25 22 21 15 9 4 4 3 1 2 1 2 2 3 5 4 2 4 2 1 2 4 4 1 3 1 4 4 7 3 4 7 6 3 6 9 20 18 7 6 9 11 16
19 16 15 11 10 6 4 2 3 1 3 3 1 2 1 5 2 4 6 1 1 2 2 1 2 3 4 0 5 4 3 5 5 4 4 5 15 14 18 19 13 8 10 14
10 11 11 18 18 7 4 3 4 2 3 1 4 2 4 5 2 2 1 3 4 3 4 3 3 2 4 3 3 2 3 2 3 5 7 7 17 18 14 14 11 10 12 11
4 3 3 19 22 8 3 2 1 3 3 6 4 2 3 5 4 2 2 2 6 7 4 4 4 4 3 2 3 4 2 2 2 1 6 5 5 11 9 5 10 7 10 7
8 4 3 11 15 12 2 1 1 1 4 5 2 3 1 5 1 1 2 1 2 2 0 3 3 4 2 2 4 3 3 2 2 2 4 4 1 2 3 5 7 9 8 11
5 2 2 6 8 9 3 1 0 2 4 4 4 5 4 5 4 3 2 4 2 1 1 1 1 1 2 2 2 3 3 2 2 2 4 3 3 3 2 3 6 9 10 11
5 1 2 5 4 3 3 2 2 1 6 4 4 4 4 4 3 2 2 1 1 1 1 2 1 1 2 0 2 1 1 1 2 1 2 1 3 3 1 1 3 7 9 9
6 8 4 1 5 6 2 2 3 1 3 3 4 3 5 4 3 2 2 3 3 1 2 2 2 1 1 2 1 0 1 2 2 2 1 1 1 2 1 3 4 2 5 6
7 10 8 4 6 6 4 1 4 2 2 2 4 3 4 4 3 3 4 4 2 2 3 2 1 2 1 2 1 2 2 2 2 1 1 2 2 1 2 4 3 3 3 4
8 8 11 7 3 8 2 1 2 4 4 2 0 1 0 2 1 3 3 2 2 2 3 2 1 2 2 2 1 2 3 2 1 3 1 1 0 3 3 2 3 2 2 3
9 4 10 11 7 4 2 1 1 2 3 1 2 2 2 1 0 1 3 2 1 2 1 1 1 4 2 3 4 2 4 4 3 2 5 5 4 3 3 3 3 2 2 2
13 15 20 17 11 8 1 1 1 1 1 2 2 1 2 1 1 4 2 0 3 3 2 1 2 2 2 2 2 3 0 7 4 3 3 3 6 5 4 3 2 2 2 2
16 19 13 19 12 10 6 1 3 2 2 1 1 1 1 1 1 3 3 5 3 2 2 2 2 1 2 1 2 5 7 6 6 3 8 4 6 9 5 4 2 0 1 2
11 6 15 16 15 12 3 3 1 2 1 2 2 2 2 2 5 6 5 2 1 1 2 2 2 0 2 3 3 4 11 7 4 1 8 4 9 6 4 3 2 1 1 1
10 6 13 15 17 4 3 3 2 2 2 1 2 2 2 2 2 1 1 1 1 1 1 3 2 3 3 3 5 3 10 9 6 7 9 4 6 4 4 1 0 1 1 1
7 5 14 15 12 6 1 1 8 5 1 1 2 2 3 5 3 3 1 2 1 2 1 1 3 3 3 5 12 5 9 9 8 9 1 3 9 6 5 3 2 2 1 2
9 4 14 4 2 2 1 6 8 7 1 3 3 5 4 4 2 2 2 1 3 1 3 3 4 4 7 9 9 14 14 12 13 9 6 6 6 6 5 3 2 2 3 3
11 7 2 2 3 10 10 2 2 1 4 3 3 3 3 4 3 3 3 1 2 3 3 4 4 5 13 8 8 12 15 11 16 12 7 7 7 7 6 5 2 3 4 5
1 3 2 2 9 2 2 3 4 4 4 5 4 5 5 4 4 3 3 3 3 3 3 4 3 5 5 9 11 10 14 12 13 5 5 7 7 8 7 5 3 2 4 5
6 7 5 2 2 3 5 5 3 6 6 5 6 4 3 4 2 3 3 3 3 4 6 3 4 5 4 9 11 12 13 13 11 10 11 9 8 6 4 2 2 3 4 5
2 3 5 5 5 6 8 9 5 4 6 7 6 5 4 3 3 3 3 5 5 5 4 5 6 2 6 10 10 12 12 12 11 10 8 8 7 4 2 2 1 2 3 4
4 6 8 7 7 8 8 6 6 5 5 10 8 3 3 3 4 3 5 3 4 5 5 7 3 10 12 12 12 13 13 12 12 10 8 7 5 4 2 1 1 2 3 5
5 5 7 9 5 0 2 3 4 4 9 12 7 3 1 2 3 3 4 5 6 7 6 3 3 11 13 13 12 12 11 9 7 5 5 5 4 2 1 0 2 2 3 3
4 8 5 2 5 4 4 5 4 5 9 4 3 5 4 5 4 5 10 7 7 4 4 2 7 12 13 14 12 11 10 10 9 8 7 6 5 4 2 2 2 1 1 2
6 4 2 5 2 7 5 5 5 8 9 4 4 6 6 4 3 5 5 5 3 2 2 5 8 14 14 12 10 10 9 9 8 8 7 6 5 5 4 3 2 2 2 1
Wind_Direction
108 110 107 107 117 134 88 63 82 330 324 72 11 350 296 329 149 46 123 103 105 70 97 71 37 338 236 5 316 313 329 303 290 303 58 288 313 2 346 358 11 31 350 63
100 116 114 112 102 122 119 83 81 32 308 74 250 272 333 275 188 350 33 61 342 109 76 44 313 233 255 318 335 352 342 360 317 74 151 47 11 6 16 338 274 27 20 51
110 106 95 88 78 101 91 125 108 67 18 21 344 127 121 150 17 68 62 49 153 91 76 53 42 332 342 326 334 335 286 31 36 55 324 313 8 22 38 20 50 49 39 38
119 97 99 59 42 109 99 59 101 130 163 197 210 333 155 162 128 19 23 67 309 44 75 58 16 7 325 244 0 360 11 47 35 44 346 352 37 26 34 43 39 45 45 41
141 124 64 17 7 65 80 112 142 101 100 105 167 288 174 176 115 358 6 95 41 59 82 25 23 2 359 2 342 34 4 68 345 42 4 10 35 26 29 35 25 44 51 43
189 179 41 16 10 27 80 71 54 136 136 132 183 184 167 173 147 93 355 119 103 81 62 48 61 67 72 3 338 15 10 348 343 51 341 325 22 3 9 31 37 7 33 351
169 209 307 17 15 27 59 101 145 128 112 159 176 173 145 147 79 146 13 27 95 66 302 141 107 93 83 360 34 9 349 340 349 343 314 61 50 339 30 35 44 34 26 9
154 187 247 14 10 38 68 6 151 121 116 130 138 148 131 121 74 76 69 16 13 31 309 312 303 217 209 92 65 9 4 300 44 45 51 137 145 42 25 14 63 26 17 7
164 166 52 58 357 32 74 34 316 83 131 194 117 142 175 146 132 124 63 37 317 297 335 270 300 335 342 324 173 232 261 320 306 84 95 120 92 67 353 217 80 10 12 12
182 178 182 36 317 328 69 26 329 41 104 175 177 166 174 136 124 136 150 172 179 306 222 252 259 263 314 297 269 106 29 3 18 51 54 250 140 330 281 239 92 6 1 9
325 204 195 203 302 311 353 349 333 333 87 151 206 178 153 142 182 174 134 153 188 176 226 242 204 254 184 245 290 251 206 195 226 172 237 238 56 203 267 73 103 57 31 23
338 238 182 189 243 295 334 306 26 24 71 85 225 132 184 308 82 143 171 340 177 174 203 215 172 216 206 251 265 182 234 232 297 235 49 64 1 85 87 104 97 93 72 24
293 281 231 198 213 223 340 284 181 68 103 84 207 176 147 139 185 344 199 209 191 199 316 142 101 250 201 227 229 230 213 189 236 233 172 192 185 143 134 117 101 65 49 35
303 287 261 213 200 158 139 277 172 64 107 173 179 281 199 64 237 194 230 208 114 101 219 182 208 251 205 263 327 252 199 161 203 245 212 196 215 203 169 153 138 118 94 64
313 317 195 177 180 139 95 259 226 273 295 198 155 287 181 66 127 155 170 171 159 176 180 196 214 154 199 198 268 239 190 184 189 222 187 186 176 169 167 178 172 245 14 23
303 305 156 165 142 115 77 323 139 209 210 122 181 6 190 108 103 105 110 115 118 200 226 192 205 234 237 237 245 241 194 198 208 178 152 95 135 138 159 172 144 71 340 302
293 249 181 164 143 122 154 182 237 273 304 194 139 208 184 171 126 105 127 89 131 260 183 215 193 189 210 246 240 208 191 183 171 150 131 134 175 171 154 154 10 13 320 340
261 294 179 149 133 104 204 148 127 97 306 272 180 148 185 186 171 170 162 168 178 195 243 176 206 151 217 251 230 195 170 159 162 170 153 103 134 139 134 129 132 167 204 341
236 281 148 99 94 150 114 129 119 106 225 284 206 180 194 156 155 133 145 200 202 108 235 220 181 191 223 228 198 187 177 177 172 157 141 145 163 155 148 152 154 232 263 299
158 128 111 219 204 138 138 26 104 183 200 226 241 132 159 174 159 172 140 184 214 220 212 144 221 251 252 227 207 190 179 172 153 149 167 168 174 179 179 197 214 267 295 304
118 138 163 35 151 83 139 190 196 177 220 195 177 178 148 215 153 163 225 171 178 232 173 207 238 259 230 189 176 176 170 163 171 133 142 165 169 172 177 188 210 269 296 299
152 117 110 119 223 208 177 191 190 201 214 150 158 180 148 160 174 133 192 172 171 237 144 205 251 243 187 167 157 158 156 151 142 142 138 137 140 152 165 190 231 274 288 297
120 121 143 187 178 211 199 187 213 206 173 173 169 161 143 136 202 120 154 177 205 128 194 234 236 159 165 157 144 143 145 143 136 137 137 137 139 136 159 206 239 286 290 307
198 171 190 204 184 217 198 190 164 184 153 151 140 144 173 141 165 153 162 183 153 203 228 232 225 182 167 156 150 141 151 151 149 150 148 146 148 147 132 118 306 301 291 305
213 177 219 206 213 159 153 126 138 161 149 144 119 101 180 141 151 191 119 174 226 220 232 227 182 157 152 152 154 147 149 146 138 134 135 135 130 121 134 256 309 282 288 328
223 209 192 76 170 186 180 181 157 160 148 109 80 133 165 207 172 166 213 177 217 227 214 178 138 152 155 154 153 152 147 152 147 149 149 146 158 173 186 245 238 256 318 327
210 207 153 157 181 188 182 169 158 152 155 174 137 181 204 104 203 222 195 211 230 208 166 148 154 159 154 147 139 138 140 144 148 145 149 154 152 144 149 146 194 247 17 318